Location: Mascot Post Office (historical)
(40.2645°N, 99.5462°W)
Time: 03:28:11
(UTC+00:00)

ATLAS 5 CENTAUR R/B - Pass Details

Date: 06 November 2020
Orbit: 522 x 1136 km, 63.4° (Epoch: 30 November)

Event Time Altitude Azimuth Distance (km) Brightness Sun altitude
Rises 02:12:45 0° 335° (NNW) 3,229 5.6 -31.3°
Reaches altitude 10° 02:15:33 10° 351° (N) 2,409 4.7 -31.9°
Enters shadow 02:16:15 13° 356° (N) 2,238 4.5 -32.0°
